Location: Estes Par
(40.3770°N, 105.5210°W)
Time: 16:11:32
(UTC-06:00)

OTV 5 (USA 277) - Pass Details

Date: 08 October 2017
Orbit: 404 x 417 km, 43.0° (Epoch: 07 September)

Event Time Altitude Azimuth Distance (km) Brightness Sun altitude
Rises 20:56:04 0° 246° (WSW) 2,341 ? -27.9°
Reaches altitude 10° 20:58:11 10° 244° (WSW) 1,479 ? -28.3°
Enters shadow 20:58:29 12° 243° (WSW) 1,357 ? -28.4°
